Report: Add data
[csit.git] / docs / report / vpp_performance_tests / index.rst
5 days ago Tibor FrankReport: Move CSIT Documentation to Introduction 24/34124/1
2021-06-14 Tibor FrankReport: Add RC1 data 16/32716/1
2021-06-02 Tibor FrankReport: Configure report 98/32498/12
2021-02-22 Tibor FrankReport: Add gso tests 71/31371/22
2020-07-14 Tibor FrankReport 2005: Add soak tests 81/27881/1
2020-07-14 Tibor FrankReport 2005: Add NFV tests 73/27873/6
2020-07-13 Tibor FrankReport 2005: Add reconf tests 70/27870/2
2020-07-08 Tibor FrankReport 2005: Add data, hide dnv, soak, reconf, nfv 14/27814/2
2020-03-04 Tibor FrankReport: Add Soak tests 12/25612/10
2020-03-03 Tibor FrankPAL: Process Hoststack data 40/25340/27
2020-03-03 Tibor FrankReport: Add reconf tests for 2n-clx 96/25596/3
2020-02-20 Tibor FrankReport: Add 2n-clx 79/25279/2
2020-02-14 Tibor FrankReport: Remove NFV 43/25143/2
2020-02-12 Tibor FrankReport: Add HDRH Lat for DPDK, part 3 01/25001/1
2020-02-12 Tibor FrankReport: Add HDRH Latency to the static content 79/24979/2
2020-02-11 Tibor FrankReport: Hide skx and clx testbeds 60/24960/3
2020-02-11 Tibor FrankReport: Remove not needed Latencies 50/24950/1
2020-02-10 Tibor FrankPAL: Latency by percentile 64/24864/15
2020-02-07 Tibor FrankReport: Placeholder for LD preload tests 52/24652/7
2020-01-15 Tibor FrankReport: Add Latency by Percentile Distribution 44/24344/10
2019-12-04 Tibor FrankPAL: Add HDRHistogram graphs for latency 10/22210/78
2019-09-18 Tibor FrankReport: Add disclaimer for reconf tests 12/22112/6
2019-09-09 Tibor FrankReport: Add soak tests 99/21899/1
2019-08-26 Tibor FrankReport: Modify comparison tables, add data 09/21509/2
2019-05-13 Tibor FrankReport: Add SOAK Tests 30/19530/1
2019-05-09 Tibor FrankReport: hide soak tests 66/19466/1
2019-04-18 Tibor FrankCSIT-1487: Configure PAL for the Report 1904 72/18972/3
2019-03-19 Tibor FrankReport: Remove VNF 82/18382/4
2019-02-14 Tibor FrankReport: Add data 02/17602/4
2019-02-12 Tibor FrankReport: Remove NSH, DNV, TCP 13/17513/2
2019-02-11 Tibor FrankReport: Remove index 66/17466/3
2019-02-04 Tibor FrankReport: Add NF service density and soak tests to static... 76/17076/8
2018-08-17 Maciek Konstantynowiczreport 18.07: moved performance change/compare sections... 13/14313/8
2018-08-07 Tibor FrankCSIT-1226: Fix bugs in pdf version 40/13940/10
2018-07-17 Tibor FrankCSIT-1094: Change menu style 26/13426/20
2018-05-18 Vratko PolakCSIT-986: MDR rst documentation 68/12268/36
2018-04-29 Maciek Konstantynowiczrls1804 report: updates to perf rls notes, methodology. 78/12278/2
2018-02-19 Tibor FrankCSIT-891: Add data sources for 1801 report 33/10633/2
2018-02-07 Tibor FrankCSIT-907: process wrk results in PAL 26/10426/3
2018-01-30 Tibor FrankReport: Meltdown/Spectre disabled 18/10318/1
2018-01-29 Maciek Konstantynowiczrls1801 report: meltdown and spectremeltdown static... 73/10273/3
2018-01-26 Tibor FrankCSIT-902: Compare performance results before/after... 97/10197/11
2018-01-24 Tibor FrankCSIT-901: Throughput Speedup Analysis - Static content 59/10159/7
2017-10-26 Tibor FrankReport: VPP documentation 57/9057/1
2017-02-06 Maciek Konstantynowiczcsit rls1701 report edits: 27/5027/13